Location: Mlawa
(53.7000°N, 20.2200°E)
Time: 11:23:15
(UTC+01:00)

ISS - Visible Passes

Search period start: 13 December 2018 00:00
Search period end: 23 December 2018 00:00
Orbit: 401 x 408 km, 51.6° (Epoch: 13 December)

Date Brightness Start Highest point End Pass type
(mag) Time Alt. Az. Time Alt. Az. Time Alt. Az.
13 Dec -0.9 16:31:21 10° WSW 16:33:39 18° SSW 16:35:57 10° SSE visible
15 Dec 0.0 16:24:50 10° SW 16:25:24 10° SW 16:25:58 10° SSW visible
22 Dec -0.3 07:07:05 10° S 07:08:35 13° SE 07:10:06 10° ESE visible
